| time (UTC) | temp F | wind direction | speed MPH | gust MPH | rain 1hr in | rain 24hr in | rain mn in | humidity % | barometer mb |
| 20260504235315 | 79 | 94 | 1.0 | 6.0 | 0.00 | 0.00 | 0.00 | 63 | 1009.4 |
| 20260504234259 | 79 | 121 | 0.0 | 7.0 | 0.00 | 0.00 | 0.00 | 63 | 1009.6 |
| 20260504233308 | 80 | 95 | 1.0 | 7.0 | 0.00 | 0.00 | 0.00 | 62 | 1009.5 |
| 20260504230020 | 81 | 76 | 1.0 | 11.0 | 0.00 | 0.00 | 0.00 | 59 | 1009.9 |
| 20260504224951 | 81 | 104 | 2.0 | 11.0 | 0.00 | 0.00 | 0.00 | 58 | 1009.8 |
| 20260504223934 | 82 | 119 | 1.0 | 9.0 | 0.00 | 0.00 | 0.00 | 59 | 1009.9 |
| 20260504222931 | 82 | 169 | 1.0 | 7.0 | 0.00 | 0.00 | 0.00 | 58 | 1010.1 |
| 20260504220804 | 82 | 239 | 0.0 | 5.0 | 0.00 | 0.00 | 0.00 | 57 | 1010.4 |
| 20260504214605 | 83 | 132 | 1.0 | 3.0 | 0.00 | 0.00 | 0.00 | 55 | 1010.3 |
| 20260504213613 | 83 | 155 | 1.0 | 6.0 | 0.00 | 0.00 | 0.00 | 54 | 1010.5 |
| 20260504212609 | 84 | 333 | 1.0 | 9.0 | 0.00 | 0.00 | 0.00 | 54 | 1010.6 |
| 20260504211602 | 83 | 98 | 1.0 | 9.0 | 0.00 | 0.00 | 0.00 | 56 | 1010.9 |
| 20260504210528 | 83 | 95 | 0.0 | 6.0 | 0.00 | 0.00 | 0.00 | 56 | 1011.1 |
| 20260504205503 | 83 | 72 | 2.0 | 7.0 | 0.00 | 0.00 | 0.00 | 54 | 1011.1 |
| 20260504204428 | 83 | 99 | 1.0 | 7.0 | 0.00 | 0.00 | 0.00 | 53 | 1011.4 |
| 20260504202321 | 83 | 61 | 1.0 | 6.0 | 0.00 | 0.00 | 0.00 | 55 | 1011.7 |
| 20260504201249 | 82 | 140 | 1.0 | 9.0 | 0.00 | 0.00 | 0.00 | 54 | 1011.9 |
| 20260504200242 | 83 | 58 | 1.0 | 9.0 | 0.00 | 0.00 | 0.00 | 53 | 1012.1 |
| 20260504195208 | 82 | 175 | 1.0 | 6.0 | 0.00 | 0.00 | 0.00 | 55 | 1012.2 |
| 20260504193100 | 83 | 150 | 1.0 | 10.0 | 0.00 | 0.00 | 0.00 | 53 | 1012.6 |
| 20260504192049 | 84 | 105 | 1.0 | 10.0 | 0.00 | 0.00 | 0.00 | 50 | 1012.7 |
| 20260504191110 | 84 | 102 | 1.0 | 6.0 | 0.00 | 0.00 | 0.00 | 52 | 1012.8 |
| 20260504190111 | 83 | 69 | 0.0 | 8.0 | 0.00 | 0.00 | 0.00 | 53 | 1013.1 |
| 20260504185058 | 83 | 182 | 1.0 | 8.0 | 0.00 | 0.00 | 0.00 | 52 | 1013.2 |
| 20260504184113 | 83 | 180 | 1.0 | 7.0 | 0.00 | 0.00 | 0.00 | 53 | 1013.2 |
| 20260504183047 | 82 | 185 | 1.0 | 6.0 | 0.00 | 0.00 | 0.00 | 53 | 1013.4 |
| 20260504182029 | 82 | 173 | 1.0 | 9.0 | 0.00 | 0.00 | 0.00 | 52 | 1013.5 |
| 20260504175839 | 82 | 117 | 1.0 | 5.0 | 0.00 | 0.00 | 0.00 | 52 | 1013.6 |
| 20260504174806 | 82 | 163 | 1.0 | 7.0 | 0.00 | 0.00 | 0.00 | 54 | 1013.7 |
| 20260504173808 | 81 | 276 | 1.0 | 8.0 | 0.00 | 0.00 | 0.00 | 54 | 1013.9 |
| 20260504172801 | 80 | 243 | 1.0 | 12.0 | 0.00 | 0.00 | 0.00 | 55 | 1014.0 |
| 20260504171746 | 81 | 94 | 1.0 | 12.0 | 0.00 | 0.00 | 0.00 | 55 | 1014.2 |
| 20260504170748 | 80 | 148 | 1.0 | 12.0 | 0.00 | 0.00 | 0.00 | 56 | 1014.4 |
| 20260504150200 | 74 | 155 | 2.0 | 8.0 | 0.00 | 0.00 | 0.00 | 63 | 1015.5 |
| 20260504130734 | 60 | 71 | 0.0 | 3.0 | 0.00 | 0.00 | 0.00 | 8 | 1015.3 |
| 20260504100257 | 58 | 107 | 0.0 | 0.0 | 0.00 | 0.00 | 0.00 | 28 | 1015.2 |
| 20260504050544 | 63 | 108 | 0.0 | 0.0 | 0.00 | 0.00 | 0.00 | 66 | 1017.6 |
| 20260504045558 | 64 | 108 | 0.0 | 0.0 | 0.00 | 0.00 | 0.00 | 66 | 1017.6 |
| 20260504044609 | 64 | 108 | 0.0 | 0.0 | 0.00 | 0.00 | 0.00 | 67 | 1017.8 |
| 20260504043536 | 65 | 108 | 0.0 | 0.0 | 0.00 | 0.00 | 0.00 | 66 | 1017.9 |
| 20260504042520 | 65 | 108 | 0.0 | 0.0 | 0.00 | 0.00 | 0.00 | 66 | 1017.8 |
| 20260504041523 | 66 | 108 | 0.0 | 0.0 | 0.00 | 0.00 | 0.00 | 66 | 1017.8 |
| 20260504040450 | 66 | 108 | 0.0 | 0.0 | 0.00 | 0.00 | 0.00 | 64 | 1017.8 |
| 20260504035423 | 67 | 108 | 0.0 | 0.0 | 0.00 | 0.00 | 0.00 | 63 | 1017.8 |
| 20260504034414 | 67 | 108 | 0.0 | 0.0 | 0.00 | 0.00 | 0.00 | 62 | 1017.7 |
| 20260504033350 | 67 | 108 | 0.0 | 0.0 | 0.00 | 0.00 | 0.00 | 62 | 1017.8 |
| 20260504032318 | 68 | 108 | 0.0 | 2.0 | 0.00 | 0.00 | 0.00 | 61 | 1017.8 |
| 20260504031304 | 68 | 96 | 0.0 | 0.0 | 0.00 | 0.00 | 0.00 | 61 | 1017.7 |
| 20260504030310 | 68 | 96 | 0.0 | 2.0 | 0.00 | 0.00 | 0.00 | 60 | 1017.7 |
| 20260504025311 | 68 | 98 | 0.0 | 2.0 | 0.00 | 0.00 | 0.00 | 60 | 1017.5 |
| 20260504024250 | 68 | 223 | 0.0 | 3.0 | 0.00 | 0.00 | 0.00 | 59 | 1017.4 |
| 20260504023240 | 69 | 90 | 0.0 | 2.0 | 0.00 | 0.00 | 0.00 | 59 | 1017.4 |
| 20260504022218 | 69 | 66 | 0.0 | 3.0 | 0.00 | 0.00 | 0.00 | 58 | 1017.4 |
| 20260504021218 | 70 | 109 | 0.0 | 1.0 | 0.00 | 0.00 | 0.00 | 57 | 1017.2 |
| 20260504020219 | 70 | 109 | 0.0 | 0.0 | 0.00 | 0.00 | 0.00 | 57 | 1017.1 |
| 20260504015228 | 71 | 109 | 0.0 | 3.0 | 0.00 | 0.00 | 0.00 | 55 | 1017.1 |
| 20260504014222 | 71 | 81 | 0.0 | 0.0 | 0.00 | 0.00 | 0.00 | 54 | 1017.0 |
| 20260504013240 | 72 | 81 | 0.0 | 0.0 | 0.00 | 0.00 | 0.00 | 54 | 1016.9 |
| 20260504012300 | 73 | 0 | 0.0 | 0.0 | 0.00 | 0.00 | 0.00 | 52 | 1016.8 |
| 20260504011254 | 73 | 81 | 0.0 | 0.0 | 0.00 | 0.00 | 0.00 | 50 | 1016.8 |
| 20260504010316 | 74 | 81 | 0.0 | 1.0 | 0.00 | 0.00 | 0.00 | 50 | 1016.7 |
| 20260504004142 | 75 | 81 | 0.0 | 3.0 | 0.00 | 0.00 | 0.00 | 46 | 1016.7 |
| 20260504003114 | 76 | 132 | 0.0 | 3.0 | 0.00 | 0.00 | 0.00 | 45 | 1016.8 |
| 20260504002127 | 77 | 118 | 0.0 | 3.0 | 0.00 | 0.00 | 0.00 | 45 | 1016.9 |
| 20260504001146 | 77 | 106 | 0.0 | 4.0 | 0.00 | 0.00 | 0.00 | 44 | 1016.8 |